Вернуться в каталог

THOR AGENA B R/B

АктивенPO
NORAD 741·ROCKET BODY·🇺🇸 United States

Запущен Jan 25, 1964 с Vandenberg Space Force Base

Loading…

Ближайшие Пролёты (ближайшие 24 часа)

TLE

СвежийSource: Space-Track

Эпоха: Sep 14, 2026, 23:21 UTC

1 00741U 64004B   26257.97344640  .00000060  00000-0  10540-3 0  9994
2 00741  81.4863  89.3820 0172293  29.0020 123.4365 13.23830294 24950

Отслеживайте THOR AGENA B R/B в реальном времени с AllMySat

Download on the App Store